www.pogodaiklimat.ru

Погода и климат >> Архив погоды >> Марокко >> Тан-Тан


ПОГОДА в Тан-Тане

  • Прогноз погоды в Тан-Тане
  • Монитор погоды в Тан-Тане

АРХИВ ПОГОДЫ в Тан-Тане

Время (UTC), дата Ветер
(напр.,м/с)
 
Видим.   Явления Облачность Т
(С)
Тd
(С)
f
(%)
Тe
(С)
Тes
(С)
Комфортность P
(гПа)
Po
(гПа)
Тmin
(С)
Tmax
(С)
R
(мм)
R24
(мм)
S
(см)
06 10.09 С 6-8
{8}
6000 м 10/10 480 м
[Sc]
+18.7 +15.2 80 +19 +19 1018.9 995.8 +18.1
09 10.09 СВ 7-7
{8}
8000 м 8/8 480 м
[Sc]
+21.1 +14.9 68 +24 +24 комфорт 1020.0 996.8
12 10.09 С 5-8
{10}
10 км ясно +24.3 +14.8 55 +27 +36 жарко 1019.3 996.1
15 10.09 С 10-13
{13}
10 км ясно +24.3 +15.5 58 +27 +28 жарко 1017.7 994.6
18 10.09 С 8-11
{12}
10 км 10/10 480 м
[Sc]
+22.3 +17.7 75 +27 +27 душно 1017.5 994.4 +25.4
06 11.09 С 5-6
{6}
8000 м 9/9 480 м
[Sc]
+19.5 +16.4 82 +21 +21 комфорт 1016.3 993.1 +19.3
09 11.09 С 8-8
{9}
8000 м 9/9 480 м
[Sc]
+20.7 +16.7 78 +24 +24 комфорт 1017.2 994.0
12 11.09 С 1-11
{11}
8000 м 8/8 300 м
[]
+22.3 +13.5 57 +25 +29 комфорт 1017.1 994.0
15 11.09 С 9-10
{10}
10 км 8/8 480 м
[Sc]
+22.6 +14.2 59 +26 +26 жарко 1014.8 991.7
18 11.09 С 9-10
{10}
10 км 8/8 480 м
[Sc]
+20.7 +14.3 67 +23 +23 комфорт 1014.6 991.5 +23.7
06 12.09 С 4-5
{6}
8000 м ясно +17.4 +15.6 89 +17 +17 1012.2 989.1 +17.3
09 12.09 С 7-8
{8}
6000 м ясно +20.4 +15.2 72 +23 +24 комфорт 1014.0 990.9
12 12.09 С 7-10
{10}
10 км ясно +24.0 +13.7 53 +26 +31 жарко 1014.2 991.1
15 12.09 С 9-10
{12}
10 км ясно +23.7 +13.6 53 +26 +27 жарко 1012.7 989.6
18 12.09 С 9-10
{12}
10 км ясно +21.9 +14.9 64 +25 +25 комфорт 1013.1 990.0 +25.3
06 13.09 СЗ 2-3
{5}
400 м туман ясно +17.8 +17.8 100 +18 +18 1013.0 990.0 +17.8
09 13.09 С 2-3
{4}
6000 м {туман} 3/3 480 м
[Sc]
+20.6 +16.7 78 +25 +29 комфорт 1014.6 991.5
12 13.09 СЗ 5-7
{7}
10 км {туман} ясно +24.4 +16.1 60 +28 +36 душно 1014.8 991.7
15 13.09 СЗ 6-9
{9}
10 км ясно +24.3 +15.8 59 +27 +32 жарко 1013.3 990.3
18 13.09 С 6-9
{10}
10 км ясно +21.5 +17.5 78 +26 +26 душно 1014.2 991.1 +25.6
06 14.09 С 2-3
{3}
100 м туман 10/10 100 м
[]
+17.6 +17.2 98 +18 +18 1016.0 992.8 +17.4
09 14.09 штиль 0-1
{2}
5000 м {туман} 10/10 480 м
[Sc]
+19.6 +18.7 95 +22 +22 комфорт 1017.7 994.7
12 14.09 С 4-6
{6}
10 км {туман} 6/3 480 м
[Sc Ci sp]
+25.4 +16.2 57 +29 +36 душно 1017.4 994.2
15 14.09 С 7-8
{9}
10 км 3/3 480 м
[Sc]
+25.5 +15.8 55 +29 +31 душно 1016.0 992.8
18 14.09 С 5-6
{8}
10 км 3/3 300 м
[]
+22.8 +16.6 68 +27 +28 душно 1017.1 993.9 +26.3
06 15.09 С 2-2
{2}
8000 м 10/10 300 м
[]
+18.9 +16.2 84 +21 +21 комфорт 1017.8 994.9 +18.6
09 15.09 С 2-2
{3}
8000 м 4/4 480 м
[Sc]
+20.9 +16.4 75 +25 +28 комфорт 1019.0 995.7
12 15.09 С 3-4
{4}
10 км ясно +25.7 +16.9 58 +29 +43 душно 1018.6 995.3
15 15.09 СЗ 6-7
{7}
10 км ясно +27.2 +16.8 53 +31 +36 душно 1016.6 993.4
18 15.09 С 6-6
{8}
10 км ясно +23.1 +16.7 67 +28 +28 душно 1016.4 993.2 +28.1
06 16.09 С 2-3
{4}
8000 м 8/5 480 м
[Sc Ac trans]
+18.2 +16.9 92 +19 +19 1016.2 993.0 +18.0
09 16.09 С 2
{4}
6000 м 9/4 180 м
[Sc Ac trans]
+19.6 +17.4 87 +23 +24 комфорт 1016.7 993.5
12 16.09 С 7
{9}
6000 м 9/8 480 м
[Sc Ac trans]
+22.6 +18.4 77 +28 +29 душно 1019.0 995.7
15 16.09 СЗ 6
{10}
10 км 4/0 540 м
[Ac trans]
+26.8 +17.5 57 +31 +34 душно 1016.5 993.3
18 16.09 С 6-7
{8}
10 км 6/0
[Ac As]
+28.9 +14.7 42 +31 +31 жарко 1016.4 993.2 +28.9

 

Местоположение метеостанции Тан-Тан (Марокко): широта 28.45 долгота -11.15 высота над уровнем моря 204 м.

В архиве по умолчанию представлена погода в Тан-Тане за последнюю неделю. Архивные данные за месяц целиком и за предыдущие месяцы, начиная с января 2011 года, Вы можете получить, выбрав интересующий диапазон дат из раскрывающегося списка и нажав кнопку "Ввод!".


*Определитесь, кто Вы:
робот инопланетянин человек

Внимание! Время в таблицах - всемирное. Для получения местного времени необходимо прибавить поправку, которая равна 0 ч.

Смотрите также архив погоды в соседних городах и на ближайших метеорологических станциях:

Погода в Гулимине (Марокко) (125 км)
Погода в Сиди-Ифни (Марокко) (139 км)
Погода в Тизните (Марокко) (194 км)
Погода в Аэропорту Лансароте (Канарские Острова) (245 км)
Погода в Агадире (Марокко) (264 км)
Погода в Аэропорту Фуэртевентура (Канарские Острова) (265 км)
Погода в Агадире (Марокко) (268 км)
Погода в Тиндуфе (Алжир) (304 км)
Погода в Морро Хабле (Канарские Острова) (318 км)
Погода в Таруданте (Марокко) (321 км)

Пояснения к столбцам:

Ветер - указаны скорость ветра в м/с - средняя за 10 мин, порывы в срок и между сроками (в фигурных скобках) и направление, откуда дует ветер: С - северный, СВ - северо-восточный, В - восточный, ЮВ - юго-восточный, Ю - южный, ЮЗ - юго-западный, З - западный, СЗ - северо-западный.
Видимость - горизонтальная дальность видимости в метрах или километрах. При видимости от 1 до 10 км при отсутствии осадков обычно наблюдается дымка, при ухудшении видимости до 1 км и менее - туман. В сухую погоду видимость может ухудшаться дымом, пылью или мглою.
Явления - указаны атмосферные явления, наблюдавшиеся в срок или в последний час перед сроком; фигурными скобками обозначены явления, наблюдавшиеся между сроками (за 1-3 часа до срока); квадратными скобками обозначены град или гололедные отложения с указанием их диаметра в мм.
Облачность - указаны через наклонную черту общая и нижняя облачность в баллах и высота нижней границы облаков в метрах; квадратными скобками обозначены формы облаков: Ci - перистые, Cs - перисто-слоистые, Cc - перисто-кучевые, Ac - высококучевые, As - высокослоистые, Sc - слоисто-кучевые, Ns - слоисто-дождевые, Cu - кучевые, Cb - кучево-дождевые. Подробнее классификацию облаков см. в Атласе облаков (PDF).
T - Температура воздуха - температура, измеренная на высоте 2 м над землей.
Td - Температура точки росы - температура, при понижении до которой содержащийся в воздухе водяной пар достигнет насыщения.
f - Относительная влажность воздуха - влажноcть воздуха, измеренная на высоте 2 м над землей.
Te - Эффективная температура - температура, которую ощущает одетый по сезону человек в тени. Характеристика душности погоды. При расчете учитывается влияние влажности воздуха и скорости ветра на теплоощущения человека.
Tes - Эффективная температура на солнце - температура, которую ощущает человек, с поправкой на солнечный нагрев. Характеристика знойности погоды. Зависит от высоты солнца над горизонтом, облачности и скорости ветра. Ночью, в пасмурную погоду, а также при ветре 12 м/с и более поправка равна нулю.
P - Атмосферное давление - приведенное к уровню моря атмосферное давление.
Po - Атмосферное давление - измеренное на уровне метеостанции атмосферное давление.
Tmin - Минимальная температура - минимум температуры воздуха на высоте 2 м над землей.
Tmax - Максимальная температура - максимум температуры воздуха на высоте 2 м над землей.
R - Количество осадков - Количество выпавших осадков за период времени, мм. При наведении курсора мыши на число - период времени, за который выпало указанное количество осадков.
R24 - Количество осадков - Количество выпавших осадков за 24 часа, мм.
S - Снежный покров - Высота снежного покрова, см. При наведении курсора мыши на число - состояние снежного покрова и степень покрытия местности в баллах.